• In Netherlands
  • List of Countries
  • For 7 days
  • Water Temperature
  • Satellite Maps
  • Weather Map
  • Weather Widgets
  • user-avatar
    Login

    Hourly Weather Emona

    Today, 30 April, Sunday

    Time Temperature Precipitation Wind Pressure Humidity
    00:00 +14°C° 0 mm 2 mps 758 mmHg 75%
    01:00 +14°C° 0 mm 2 mps 758 mmHg 76%
    02:00 +14°C° 0 mm 2 mps 758 mmHg 70%
    03:00 +13°C° 0 mm 1 mps 758 mmHg 73%
    04:00 +13°C° 0 mm 1 mps 758 mmHg 75%
    05:00 +13°C° 0 mm 1 mps 758 mmHg 77%
    06:00 +14°C° 0.1 mm 1 mps 758 mmHg 74%
    07:00 +16°C° 0.1 mm 2 mps 758 mmHg 71%
    08:00 +18°C° 0 mm 3 mps 759 mmHg 70%
    09:00 +19°C° 0 mm 3 mps 759 mmHg 70%
    10:00 +20°C° 0 mm 4 mps 759 mmHg 69%
    11:00 +20°C° 0 mm 4 mps 759 mmHg 69%
    12:00 +21°C° 0 mm 4 mps 759 mmHg 68%
    13:00 +21°C° 0 mm 4 mps 759 mmHg 67%
    14:00 +21°C° 0 mm 5 mps 759 mmHg 66%
    15:00 +21°C° 0 mm 4 mps 759 mmHg 66%
    16:00 +20°C° 0 mm 4 mps 759 mmHg 67%
    17:00 +20°C° 0 mm 4 mps 759 mmHg 67%
    18:00 +17°C° 0 mm 4 mps 759 mmHg 71%
    19:00 +14°C° 0 mm 3 mps 759 mmHg 74%
    20:00 +12°C° 0 mm 3 mps 759 mmHg 78%
    21:00 +11°C° 0 mm 3 mps 759 mmHg 78%
    22:00 +12°C° 0 mm 2 mps 760 mmHg 79%
    23:00 +10°C° 0 mm 2 mps 760 mmHg 79%

    Tomorrow, 1 May, Monday

    Time Temperature Precipitation Wind Pressure Humidity
    00:00 +10°C° 0 mm 3 mps 760 mmHg 80%
    01:00 +9°C° 0 mm 3 mps 760 mmHg 80%
    02:00 +9°C° 0 mm 3 mps 760 mmHg 81%
    03:00 +9°C° 0 mm 3 mps 760 mmHg 80%
    04:00 +9°C° 0 mm 3 mps 760 mmHg 79%
    05:00 +9°C° 0 mm 3 mps 760 mmHg 79%
    06:00 +10°C° 0 mm 4 mps 760 mmHg 75%
    07:00 +12°C° 0 mm 4 mps 760 mmHg 72%
    08:00 +14°C° 0 mm 4 mps 761 mmHg 69%
    09:00 +16°C° 0 mm 5 mps 761 mmHg 67%
    10:00 +17°C° 0 mm 5 mps 761 mmHg 66%
    11:00 +19°C° 0 mm 6 mps 761 mmHg 64%
    12:00 +20°C° 0 mm 6 mps 761 mmHg 63%
    13:00 +20°C° 0 mm 6 mps 761 mmHg 62%
    14:00 +21°C° 0 mm 6 mps 760 mmHg 61%
    15:00 +20°C° 0 mm 5 mps 760 mmHg 63%
    16:00 +20°C° 0 mm 5 mps 760 mmHg 66%
    17:00 +19°C° 0 mm 4 mps 760 mmHg 68%
    18:00 +17°C° 0 mm 4 mps 760 mmHg 75%
    19:00 +13°C° 0 mm 3 mps 761 mmHg 82%
    20:00 +12°C° 0 mm 2 mps 761 mmHg 89%
    21:00 +12°C° 0 mm 2 mps 761 mmHg 89%
    22:00 +10°C° 0 mm 2 mps 761 mmHg 89%
    23:00 +10°C° 0 mm 2 mps 761 mmHg 90%

    Day after tomorrow, 2 May, Tuesday

    Time Temperature Precipitation Wind Pressure Humidity
    00:00 +9°C° 0 mm 2 mps 761 mmHg 89%
    01:00 +9°C° 0 mm 2 mps 761 mmHg 89%
    02:00 +9°C° 0 mm 2 mps 761 mmHg 89%
    03:00 +9°C° 0 mm 2 mps 761 mmHg 88%
    04:00 +9°C° 0 mm 2 mps 761 mmHg 87%
    05:00 +9°C° 0 mm 2 mps 761 mmHg 87%
    06:00 +12°C° 0 mm 2 mps 762 mmHg 80%
    07:00 +14°C° 0 mm 3 mps 762 mmHg 73%
    08:00 +17°C° 0 mm 3 mps 762 mmHg 66%
    09:00 +19°C° 0 mm 3 mps 762 mmHg 64%
    10:00 +20°C° 0 mm 3 mps 762 mmHg 62%
    11:00 +21°C° 0 mm 4 mps 763 mmHg 59%
    12:00 +22°C° 0 mm 4 mps 763 mmHg 59%
    13:00 +22°C° 0 mm 4 mps 762 mmHg 58%
    14:00 +23°C° 0 mm 4 mps 762 mmHg 57%
    15:00 +22°C° 0 mm 4 mps 762 mmHg 60%
    16:00 +21°C° 0 mm 4 mps 762 mmHg 62%
    17:00 +21°C° 0 mm 4 mps 762 mmHg 65%
    18:00 +18°C° 0 mm 3 mps 762 mmHg 73%
    19:00 +16°C° 0 mm 3 mps 763 mmHg 80%
    20:00 +13°C° 0 mm 2 mps 763 mmHg 87%
    21:00 +12°C° 0 mm 2 mps 763 mmHg 88%
    22:00 +12°C° 0 mm 2 mps 763 mmHg 88%
    23:00 +11°C° 0 mm 1 mps 763 mmHg 88%

    3 May, Wednesday

    Time Temperature Precipitation Wind Pressure Humidity
    00:00 +11°C° 0 mm 1 mps 763 mmHg 89%
    01:00 +11°C° 0 mm 1 mps 763 mmHg 89%
    02:00 +10°C° 0 mm 1 mps 763 mmHg 90%
    03:00 +10°C° 0 mm 1 mps 763 mmHg 90%
    04:00 +10°C° 0 mm 1 mps 763 mmHg 90%
    05:00 +10°C° 0 mm 1 mps 763 mmHg 90%
    06:00 +13°C° 0 mm 2 mps 763 mmHg 83%
    07:00 +15°C° 0 mm 2 mps 763 mmHg 77%
    08:00 +18°C° 0 mm 2 mps 763 mmHg 71%
    09:00 +19°C° 0 mm 2 mps 763 mmHg 67%
    10:00 +21°C° 0 mm 3 mps 763 mmHg 64%
    11:00 +22°C° 0 mm 3 mps 763 mmHg 61%
    12:00 +22°C° 0 mm 3 mps 763 mmHg 61%
    13:00 +23°C° 0 mm 4 mps 763 mmHg 61%
    14:00 +23°C° 0 mm 4 mps 762 mmHg 60%
    15:00 +22°C° 0 mm 4 mps 762 mmHg 63%
    16:00 +21°C° 0 mm 4 mps 762 mmHg 66%
    17:00 +21°C° 0 mm 4 mps 762 mmHg 69%
    18:00 +18°C° 0 mm 4 mps 762 mmHg 77%
    19:00 +16°C° 0 mm 3 mps 762 mmHg 84%
    20:00 +13°C° 0 mm 2 mps 762 mmHg 92%
    21:00 +13°C° 0 mm 2 mps 762 mmHg 92%
    22:00 +12°C° 0 mm 2 mps 762 mmHg 93%
    23:00 +10°C° 0 mm 2 mps 763 mmHg 93%

    4 May, Thursday

    Time Temperature Precipitation Wind Pressure Humidity
    00:00 +10°C° 0 mm 2 mps 762 mmHg 93%
    01:00 +11°C° 0 mm 1 mps 762 mmHg 93%
    02:00 +10°C° 0 mm 1 mps 762 mmHg 93%
    03:00 +10°C° 0 mm 1 mps 762 mmHg 92%
    04:00 +10°C° 0 mm 1 mps 762 mmHg 92%
    05:00 +9°C° 0 mm 1 mps 761 mmHg 91%
    06:00 +12°C° 0 mm 2 mps 762 mmHg 85%
    07:00 +14°C° 0 mm 2 mps 762 mmHg 79%
    08:00 +17°C° 0 mm 2 mps 762 mmHg 72%
    09:00 +18°C° 0 mm 2 mps 761 mmHg 69%
    10:00 +20°C° 0 mm 2 mps 761 mmHg 65%
    11:00 +21°C° 0 mm 2 mps 761 mmHg 61%
    12:00 +22°C° 0 mm 3 mps 761 mmHg 60%
    13:00 +22°C° 0 mm 3 mps 761 mmHg 59%
    14:00 +23°C° 0 mm 4 mps 760 mmHg 58%
    15:00 +22°C° 0 mm 4 mps 760 mmHg 61%
    16:00 +21°C° 0 mm 4 mps 760 mmHg 64%
    17:00 +20°C° 0 mm 4 mps 760 mmHg 67%
    18:00 +18°C° 0 mm 3 mps 760 mmHg 74%
    19:00 +14°C° 0 mm 3 mps 760 mmHg 81%
    20:00 +13°C° 0 mm 2 mps 760 mmHg 88%
    21:00 +12°C° 0 mm 2 mps 760 mmHg 88%
    22:00 +10°C° 0 mm 2 mps 760 mmHg 88%
    23:00 +11°C° 0 mm 1 mps 760 mmHg 87%

    5 May, Friday

    Time Temperature Precipitation Wind Pressure Humidity
    00:00 +10°C° 0 mm 1 mps 760 mmHg 87%
    01:00 +10°C° 0 mm 1 mps 760 mmHg 87%
    02:00 +10°C° 0 mm 1 mps 759 mmHg 87%
    03:00 +9°C° 0 mm 1 mps 759 mmHg 88%
    04:00 +9°C° 0 mm 1 mps 759 mmHg 88%
    05:00 +9°C° 0 mm 1 mps 759 mmHg 88%
    06:00 +12°C° 0 mm 1 mps 759 mmHg 81%
    07:00 +14°C° 0 mm 1 mps 759 mmHg 75%
    08:00 +18°C° 0 mm 1 mps 759 mmHg 68%
    09:00 +19°C° 0 mm 2 mps 759 mmHg 64%
    10:00 +20°C° 0 mm 2 mps 759 mmHg 61%
    11:00 +21°C° 0 mm 2 mps 759 mmHg 58%
    12:00 +23°C° 0 mm 2 mps 758 mmHg 57%
    13:00 +22°C° 0 mm 3 mps 758 mmHg 57%
    14:00 +22°C° 0 mm 3 mps 757 mmHg 57%
    15:00 +22°C° 0 mm 3 mps 757 mmHg 61%
    16:00 +21°C° 0 mm 3 mps 757 mmHg 65%
    17:00 +20°C° 0 mm 3 mps 757 mmHg 69%
    18:00 +18°C° 0 mm 3 mps 757 mmHg 76%
    19:00 +14°C° 0 mm 3 mps 757 mmHg 84%
    20:00 +13°C° 0 mm 2 mps 757 mmHg 91%
    21:00 +12°C° 0 mm 2 mps 757 mmHg 92%
    22:00 +12°C° 0 mm 2 mps 757 mmHg 92%
    23:00 +11°C° 0 mm 1 mps 757 mmHg 92%
    Show more